Perry, IA

12:25 AM CDT on April 25, 2018 (GMT -0500)
Perry Municipal

Weather History for KPRO - April, 2014

Change the Weather History Date:

Monday, April 21, 2014

  Actual Average Record
Temperature  
Mean Temperature 62 °F -  
Max Temperature 73 °F 62 °F 87 °F (1980)
Min Temperature 51 °F 40 °F 21 °F (1966)
Degree Days  
Heating Degree Days 3    
Growing Degree Days 12 (Base 50)    
Moisture  
Dew Point 44 °F    
Average Humidity 56    
Maximum Humidity 84    
Minimum Humidity 13    
Precipitation  
Precipitation 0.00 in - - ()
Sea Level Pressure  
Sea Level Pressure 29.98 in    
Wind  
Wind Speed 9 mph (NNW)    
Max Wind Speed 26 mph    
Max Gust Speed 33 mph    
Visibility 10 miles    
Events Rain    
Averages and records for this station are not official NWS values.
T = Trace of Precipitation, MM = Missing Value Source: NWS Daily Summary

Daily Weather History Graph

Daily Weather History Graph

Search for Another Location

Airport or City:

Astronomy

Apr. 21, 2014 Rise Set
Actual Time 6:27 AM CDT 8:04 PM CDT
Civil Twilight 5:57 AM CDT 8:33 PM CDT
Nautical Twilight 5:22 AM CDT 9:09 PM CDT
Astronomical Twilight 4:44 AM CDT 9:47 PM CDT
Moon 1:36 AM CDT (4/21) 11:53 AM CDT (4/21)
Length of Visible Light 14h 35m
Length of Day
13h 37m
Waning Gibbous, 57% of the Moon is Illuminated
Apr 21
Waning Gibbous
Apr 22
Last Quarter
Apr 29
New
May 6
First Quarter
May 14
Full

Hourly Weather History & Observations

Time (CDT) Temp. Dew Point Humidity Pressure Visibility Wind Dir Wind Speed Gust Speed Precip Events Conditions
12:15 AM 62.2 °F 52.3 °F 70% 29.96 in 10.0 mi SW 5.8 mph - N/A   Scattered Clouds
12:35 AM 60.8 °F 51.6 °F 72% 29.96 in 10.0 mi SSW 5.8 mph - N/A   Scattered Clouds
12:55 AM 61.2 °F 52.2 °F 72% 29.96 in 10.0 mi SW 5.8 mph - N/A   Scattered Clouds
1:15 AM 61.9 °F 52.2 °F 70% 29.96 in 10.0 mi SW 5.8 mph - N/A   Scattered Clouds
1:35 AM 60.4 °F 51.6 °F 73% 29.97 in 10.0 mi Calm Calm - N/A   Scattered Clouds
1:55 AM 60.4 °F 52.0 °F 74% 29.97 in 10.0 mi East 3.5 mph - N/A   Mostly Cloudy
2:15 AM 60.1 °F 52.0 °F 75% 29.97 in 10.0 mi SE 4.6 mph - N/A   Mostly Cloudy
2:35 AM 60.3 °F 52.3 °F 75% 29.96 in 10.0 mi ESE 3.5 mph - N/A   Overcast
2:55 AM 60.1 °F 52.2 °F 75% 29.96 in 10.0 mi SSE 5.8 mph - N/A   Mostly Cloudy
3:15 AM 59.9 °F 52.2 °F 76% 29.96 in 10.0 mi South 3.5 mph - N/A   Scattered Clouds
3:35 AM 59.2 °F 52.0 °F 77% 29.95 in 10.0 mi SW 4.6 mph - N/A   Scattered Clouds
3:55 AM 58.8 °F 51.6 °F 77% 29.94 in 10.0 mi Calm Calm - N/A   Scattered Clouds
4:15 AM 59.0 °F 51.4 °F 76% 29.94 in 10.0 mi South 4.6 mph - N/A   Clear
4:35 AM 58.5 °F 51.8 °F 79% 29.94 in 10.0 mi South 4.6 mph - N/A   Clear
4:55 AM 58.6 °F 51.8 °F 78% 29.94 in 10.0 mi Calm Calm - N/A   Scattered Clouds
5:15 AM 58.6 °F 52.0 °F 79% 29.94 in 10.0 mi North 5.8 mph - N/A   Overcast
5:35 AM 59.0 °F 52.2 °F 78% 29.93 in 10.0 mi Calm Calm - N/A   Overcast
5:55 AM 58.3 °F 52.0 °F 80% 29.93 in 10.0 mi SE 5.8 mph - N/A   Scattered Clouds
6:15 AM 57.6 °F 51.3 °F 79% 29.93 in 10.0 mi SSE 4.6 mph - N/A   Scattered Clouds
6:35 AM 57.2 °F 51.1 °F 80% 29.93 in 10.0 mi SE 3.5 mph - N/A   Scattered Clouds
6:55 AM 57.6 °F 51.4 °F 80% 29.94 in 10.0 mi South 4.6 mph - N/A   Mostly Cloudy
7:15 AM 58.3 °F 51.8 °F 79% 29.94 in 10.0 mi South 4.6 mph - N/A   Overcast
7:35 AM 58.6 °F 52.0 °F 79% 29.95 in 10.0 mi Calm Calm - N/A   Overcast
7:55 AM 58.6 °F 52.0 °F 79% 29.96 in 10.0 mi Calm Calm - N/A   Mostly Cloudy
8:15 AM 59.0 °F 52.7 °F 80% 29.96 in 10.0 mi Calm Calm - N/A   Scattered Clouds
8:35 AM 59.2 °F 53.2 °F 81% 29.95 in 7.0 mi Calm Calm - N/A Rain Light Rain
8:55 AM 59.9 °F 54.9 °F 83% 29.93 in 7.0 mi SSE 5.8 mph - N/A   Drizzle
9:15 AM 60.8 °F 55.9 °F 84% 29.93 in 7.0 mi WSW 5.8 mph - N/A Rain Light Rain
9:35 AM 61.9 °F 56.5 °F 82% 29.95 in 10.0 mi WNW 10.4 mph - N/A   Clear
9:55 AM 63.0 °F 57.0 °F 81% 29.96 in 10.0 mi WNW 12.7 mph - N/A   Clear
10:35 AM 63.9 °F 56.1 °F 76% 29.96 in 10.0 mi WNW 4.6 mph - N/A   Scattered Clouds
10:55 AM 64.8 °F 55.6 °F 72% 29.96 in 10.0 mi WNW 4.6 mph - N/A   Scattered Clouds
11:15 AM 66.0 °F 56.1 °F 70% 29.96 in 10.0 mi NNW 6.9 mph - N/A   Mostly Cloudy
11:35 AM 65.7 °F 55.8 °F 70% 29.97 in 10.0 mi NW 6.9 mph - N/A   Overcast
11:55 AM 66.6 °F 55.2 °F 67% 29.97 in 10.0 mi NNW 8.1 mph - N/A   Overcast
12:15 PM 68.7 °F 55.8 °F 63% 29.97 in 10.0 mi NW 9.2 mph - N/A   Mostly Cloudy
12:35 PM 68.2 °F 54.5 °F 62% 29.96 in 10.0 mi NNW 12.7 mph 19.6 mph N/A   Overcast
12:55 PM 69.8 °F 54.3 °F 58% 29.96 in 10.0 mi NNW 19.6 mph 24.2 mph N/A   Overcast
1:15 PM 67.3 °F 53.6 °F 61% 29.97 in 10.0 mi North 18.4 mph 25.3 mph N/A   Overcast
1:35 PM 66.7 °F 53.8 °F 63% 29.98 in 10.0 mi NNW 20.7 mph 26.5 mph N/A   Overcast
1:55 PM 66.7 °F 51.3 °F 57% 29.98 in 10.0 mi NNW 19.6 mph 25.3 mph N/A   Overcast
2:15 PM 68.7 °F 42.6 °F 39% 29.98 in 10.0 mi North 23.0 mph 28.8 mph N/A   Overcast
2:35 PM 71.6 °F 37.0 °F 28% 29.98 in 10.0 mi NNW 24.2 mph 32.2 mph N/A   Overcast
2:55 PM 73.0 °F 35.1 °F 25% 29.98 in 10.0 mi NNW 26.5 mph 31.1 mph N/A   Mostly Cloudy
3:15 PM 70.7 °F 33.6 °F 26% 29.98 in 10.0 mi North 23.0 mph 32.2 mph N/A   Overcast
3:35 PM 73.2 °F 29.7 °F 20% 29.98 in 10.0 mi NNW 20.7 mph 31.1 mph N/A   Mostly Cloudy
3:55 PM 73.4 °F 27.9 °F 18% 29.97 in 10.0 mi NNW 23.0 mph 28.8 mph N/A   Scattered Clouds
4:15 PM 72.7 °F 21.7 °F 15% 29.97 in 10.0 mi NNW 24.2 mph 28.8 mph N/A   Clear
4:35 PM 73.4 °F 22.8 °F 15% 29.97 in 10.0 mi NNW 24.2 mph 28.8 mph N/A   Clear
4:55 PM 73.4 °F 19.8 °F 13% 29.97 in 10.0 mi NNW 23.0 mph 29.9 mph N/A   Clear
5:15 PM 73.8 °F 22.1 °F 14% 29.97 in 10.0 mi NNW 20.7 mph 31.1 mph N/A   Clear
5:35 PM 73.0 °F 24.6 °F 16% 29.97 in 10.0 mi NNW 18.4 mph 27.6 mph N/A   Clear
5:55 PM 72.5 °F 25.7 °F 17% 29.97 in 10.0 mi North 21.9 mph 27.6 mph N/A   Clear
6:15 PM 71.2 °F 27.5 °F 20% 29.98 in 10.0 mi North 24.2 mph 33.4 mph N/A   Clear
6:35 PM 70.2 °F 27.9 °F 21% 29.98 in 10.0 mi North 21.9 mph 33.4 mph N/A   Clear
6:55 PM 69.1 °F 28.4 °F 22% 29.99 in 10.0 mi North 23.0 mph 26.5 mph N/A   Clear
7:15 PM 68.0 °F 30.0 °F 24% 29.99 in 10.0 mi North 23.0 mph 31.1 mph N/A   Clear
7:35 PM 66.4 °F 31.6 °F 27% 30.00 in 10.0 mi North 19.6 mph 27.6 mph N/A   Clear
7:55 PM 64.6 °F 31.8 °F 29% 30.00 in 10.0 mi North 19.6 mph 25.3 mph N/A   Clear
8:15 PM 62.2 °F 34.9 °F 36% 30.01 in 10.0 mi North 18.4 mph - N/A   Clear
8:35 PM 60.6 °F 34.9 °F 38% 30.02 in 10.0 mi North 13.8 mph - N/A   Clear
8:55 PM 59.4 °F 33.8 °F 38% 30.03 in 10.0 mi North 16.1 mph - N/A   Clear
9:15 PM 57.6 °F 34.3 °F 42% 30.04 in 10.0 mi North 15.0 mph - N/A   Clear
9:35 PM 57.0 °F 32.9 °F 40% 30.05 in 10.0 mi North 15.0 mph - N/A   Clear
9:55 PM 55.9 °F 32.2 °F 41% 30.06 in 10.0 mi North 16.1 mph 24.2 mph N/A   Clear
10:15 PM 54.5 °F 32.7 °F 44% 30.06 in 10.0 mi North 12.7 mph - N/A   Clear
10:35 PM 53.4 °F 32.9 °F 46% 30.07 in 10.0 mi North 9.2 mph 12.7 mph N/A   Clear
10:55 PM 52.9 °F 32.4 °F 46% 30.08 in 10.0 mi North 13.8 mph - N/A   Clear
11:15 PM 52.0 °F 32.4 °F 47% 30.08 in 10.0 mi North 11.5 mph - N/A   Clear
11:35 PM 51.4 °F 32.9 °F 49% 30.09 in 10.0 mi North 13.8 mph - N/A   Clear
11:55 PM 51.1 °F 32.4 °F 49% 30.09 in 10.0 mi NNW 11.5 mph - N/A   Clear